Regional Weather Roundup
Issued by NWS Upton, NY

Current Version | Previous Version | Text Only | Print | Product List | Glossary On
Versions: 1 2 3 4 5 6 7 8 9 10 11 12 13 14 15 16 17 18 19 20 21 22 23 24 25 26 27 28 29 30 31 32 33 34 35 36 37 38 39 40 41 42 43 44 45 46 47 48 49 50
000 ASUS41 KOKX 201605 RWROKX REGIONAL WEATHER ROUNDUP NATIONAL WEATHER SERVICE NEW YORK NY 1100 AM EST SAT DEC 20 2014 NOTE: "FAIR" INDICATES FEW OR NO CLOUDS BELOW 12,000 FEET WITH NO SIGNIFICANT WEATHER AND/OR OBSTRUCTIONS TO VISIBILITY. NYZ071-072-176-178-NJZ106-104-201700- NEW YORK CITY METRO AREA CITY SKY/WX TMP DP RH WIND PRES REMARKS CENTRAL PARK CLOUDY 31 18 58 CALM 30.31F LAGUARDIA APRT CLOUDY 31 20 63 N9 30.30F WCI 23 KENNEDY INTL CLOUDY 32 20 61 N9 30.31F WCI 24 NEWARK/LIBERTY CLOUDY 32 21 64 N7 30.30F WCI 26 BRNX BOT. GARD N/A N/A N/A N/A NW5 30.31S TETERBORO CLOUDY 31 19 61 N7 30.30F WCI 24 $$ NYZ177-179-078>081-201700- LONG ISLAND NEW YORK CITY SKY/WX TMP DP RH WIND PRES REMARKS FARMINGDALE CLOUDY 32 21 64 NW6 30.29F WCI 26 ISLIP CLOUDY 32 22 66 NW8 30.27S WCI 25 SHIRLEY CLOUDY 32 23 69 NW9 30.29R WCI 24 WESTHAMPTON CLOUDY 33 23 66 N3 30.29R MONTAUK POINT N/A 35 26 69 N3 30.27S $$ NYZ052-065-067-201700- HUDSON VALLEY CITY SKY/WX TMP DP RH WIND PRES REMARKS WHITE PLAINS PTSUNNY 30 19 63 NW6 30.26F WCI 24 NEWBURGH CLOUDY 28 21 74 CALM 30.29S MONTGOMERY CLOUDY 29 19 66 VRB3 30.28S POUGHKEEPSIE CLOUDY 30 19 63 N8 30.30S WCI 22 ALBANY PTSUNNY 26 18 71 NW5 30.32F WCI 20 $$ NJZ001-105-106-008-010-013-015-019>022-104-201700- NEW JERSEY CITY SKY/WX TMP DP RH WIND PRES REMARKS NEWARK/LIBERTY CLOUDY 32 21 64 N7 30.30F WCI 26 TETERBORO CLOUDY 31 19 61 N7 30.30F WCI 24 CALDWELL CLOUDY 30 20 66 VRB3 30.30F MORRISTOWN CLOUDY 32 23 69 CALM 30.30F SOMERVILLE CLOUDY 32 20 61 CALM 30.29F SUSSEX CLOUDY 30 21 69 CALM 30.28S ANDOVER N/A 29 20 69 N5 30.27F WCI 24 TRENTON CLOUDY 32 19 58 CALM 30.30S MILLVILLE CLOUDY 33 24 69 N8 30.29F WCI 26 ATLANTIC CITY CLOUDY 33 23 66 N9 30.30F WCI 25 WRIGHTSTOWN CLOUDY 32 21 64 NW8 30.28S WCI 24 TOMS RIVER CLOUDY 32 21 64 NW7 30.31R WCI 26 BELMAR CLOUDY 32 19 59 NW8 30.29S WCI 25 $$ PAZ047>061-062-071-201700- EASTERN PENNSYLVANIA CITY SKY/WX TMP DP RH WIND PRES REMARKS PHILADELPHIA CLOUDY 34 20 56 NE9 30.31F WCI 27 ALLENTOWN CLOUDY 33 20 58 CALM 30.29F SCRANTON LGT SNOW 30 22 72 NW5 30.26S WCI 25 $$ CTZ002-004>006-009-010-012-RIZ004-006-007-MAZ004-011-015-201700- SOUTHERN NEW ENGLAND IN CT CITY SKY/WX TMP DP RH WIND PRES REMARKS BRADLEY INTL CLOUDY 29 18 63 N6 30.28F WCI 23 HARTFORD CLOUDY 28 19 69 N7 30.29S WCI 21 DANBURY CLOUDY 29 17 61 NW6 30.28S WCI 23 WTRBRY/OXFORD CLOUDY 28 16 59 NE6 30.25S WCI 22 BRIDGEPORT CLOUDY 32 21 64 W3 30.29R MERIDEN CLOUDY 29 19 66 N8 30.28S WCI 21 NEW HAVEN CLOUDY 33 20 58 N8 30.29R WCI 26 CHESTER CLOUDY 32 23 69 N3 30.26R GROTON CLOUDY 31 23 72 N7 30.26F WCI 24 WILLIMANTIC CLOUDY 32 21 64 NE7 30.27F WCI 26 IN RI CITY SKY/WX TMP DP RH WIND PRES REMARKS PROVIDENCE CLOUDY 33 22 63 N7 30.27F WCI 27 BLOCK ISLAND CLOUDY 36 27 69 NE6 30.24S WCI 31 WESTERLY CLOUDY 33 24 69 CALM 30.26F IN MA CITY SKY/WX TMP DP RH WIND PRES REMARKS BOSTON CLOUDY 31 22 69 N9 30.28F WCI 23 WORCESTER MOSUNNY 30 19 63 NE9 30.23F WCI 22 WESTFIELD CLOUDY 28 18 66 N7 30.28F WCI 21 PROVINCETOWN CLOUDY 39 32 75 N9 30.25F WCI 33 NANTUCKET CLOUDY 40 33 76 N13 30.23F WCI 32 $$ ANZ330-335-338-340-345-350-353-355-201700- COASTAL MARINE OBSERVATIONS STATION/POSITION TIME SKY/WX TEMP WIND PRES VSBY WAVE AIR SEA DIR/SP/G HT/PER (UTC) (F) (DEG/KT/KT) (MB) (MI) (FT/S) NY HARB ENTRANCE 1600 33 46 350/ 8/ 12 1026.2 1/11 4S FIRE IS 1600 46 N/A 1/11 20S FIRE ISLAND 1500 35 49 1026.0 1/ 3 23SW MTP 1600 N/A 1/11 HUDSON CANYON 1600 38 54 320/ 6/ 8 1024.2 2/ 4 EXECUTION ROCKS NOT AVBL WESTERN LI SOUND NOT AVBL CENTRAL LI SOUND NOT AVBL EASTERN LI SOUND NOT AVBL ROBBINS REEF 1600 30 130/ 3/ 8 1024.9 $$ >>>>>>>>>>>>>>>>>>>>>>>>>>>> KEY <<<<<<<<<<<<<<<<<<<<<<<<<<< > < > SKY/WX - SKY CONDITION/PRESENT WEATHER < > TMP - TEMPERATURE IN FAHRENHEIT < > DP - DEWPOINT IN FAHRENHEIT < > RH - RELATIVE HUMIDITY IN PERCENT < > WIND - DIRECTION AND SPEED IN MPH < > PRES - MEAN SEA LEVEL PRESSURE IN INCHES OF HG < > WCI - WIND CHILL INDEX < > VSB - VISIBILITY IN MILES < > HX - HEAT INDEX < > TC - TEMPERATURE IN CELSIUS < > VRB - VARIABLE WIND DIRECTION < > < >>>>>>>>>>>>>>>>>>>>>>>>>>>> KEY <<<<<<<<<<<<<<<<<<<<<<<<<<<

USA.gov is the U.S. government's official web portal to all federal, state and local government web resources and services.